Regional Weather Roundup
Issued by NWS

Home | Current Version | Previous Version | Text Only | Print | Product List | Glossary On
Versions: 1 2 3 4 5 6 7 8 9 10 11 12 13 14 15 16 17 18 19 20 21 22 23 24 25 26 27 28
000
ASUS42 KTBW 171910
RWRFL
FLORIDA REGIONAL WEATHER ROUNDUP
NATIONAL WEATHER SERVICE TAMPA BAY RUSKIN FL
300 PM EDT THU APR 17 2014

NOTE: "FAIR" INDICATES FEW OR NO CLOUDS BELOW 12,000 FEET WITH NO
SIGNIFICANT WEATHER AND/OR OBSTRUCTIONS TO VISIBILITY.


FLZ001>010-012>015-112-114-115-172000-
PANHANDLE FLORIDA

CITY           SKY/WX    TMP DP  RH WIND       PRES   REMARKS
PENSACOLA      PTSUNNY   73  52  47 NE8       30.19F
PENSACOLA NAS  PTSUNNY   71  55  56 E15       30.18F
MILTON NAS     CLOUDY    72  53  51 VRB6      30.20F
CRESTVIEW      PTSUNNY   74  54  49 E9G18     30.21F
DUKE FIELD     PTSUNNY   73  53  48 NE7       30.19F
VALPARAISO     PTSUNNY   74  58  56 E7        30.19F
MARY ESTHER    PTSUNNY   73  51  45 E13       30.19F
TRI COUNTY     FAIR      70  55  59 NE9G21    30.23F
PANAMA CITY    CLOUDY    73  56  54 NE13      30.17F
TYNDALL AFB    PTSUNNY   72  64  77 E7        30.19F
APALACHICOLA   CLOUDY    70  58  65 E13       30.18F

STATION/POSITION SKY/WX   TEMP    WIND        PRES    WAVE   SWELL
                          AIR SEA DIR/SP/G            HT/PER HT/PER
                          (F)     (DEG/KT/KT) (MB)    (FT/S) (FT/S)
30.1N   87.6W              62 66   80/ 16/ 19 1022.0F   5/ 6
29.2N   88.2W              66 71   80/ 23/ 29 1020.7F
28.8N   86.0W              67 68   80/ 21/ 25 1020.8F   8/ 8
PANAMA CITY BEAC           71 68  110/ 12/ 14 1021.9F
CAPE SAN BLAS    NOT AVBL
TOWER C                    65      60/ 25/ 27 1021.2F
28.5N   84.5W              68 69   70/ 17/ 21 1020.3F   6/ 7

$$
FLZ011-016>038-118-127-128-134-139-239-172000-
NORTH FLORIDA

CITY           SKY/WX    TMP DP  RH WIND       PRES   REMARKS
MARIANNA       PTSUNNY   70  55  59 E12       30.23F
TALLAHASSEE    PTSUNNY   73  54  51 E15G24    30.22F
PERRY          CLOUDY    70  59  68 NE13G21   30.23F
CROSS CITY       N/A     75  61  61 VRB7G21   30.19F
GAINESVILLE    CLOUDY    73  61  65 NE20G25   30.23F
MAYPORT NAS    CLOUDY    70  60  70 NE22G36   30.29F
JACKSONVILLE   CLOUDY    66  59  78 NE24G33   30.30F
JAX NAS        CLOUDY    70  59  68 NE21      30.28F
JAX CRAIG      CLOUDY    69  59  70 NE18G32   30.29F
JAX CECIL      CLOUDY    66  59  77 NE14G21   30.29F
FERNANDINA BEA CLOUDY    66  57  72 NE20G32   30.29F
ST AUGUSTINE   MOSUNNY   70  63  78 NE18G26   30.28F HAZE

STATION/POSITION SKY/WX   TEMP    WIND        PRES    WAVE   SWELL
                          AIR SEA DIR/SP/G            HT/PER HT/PER
                          (F)     (DEG/KT/KT) (MB)    (FT/S) (FT/S)
SHELL POINT                70      70/  6/ 11 1022.9F
KEATON BEACH               71      60/ 18/ 23 1022.2F
CEDAR KEY                  72      80/ 15/ 17 1022.0F
FERNANDINA                 64 65   30/ 13/ 18 1025.6F
30.7N   81.3W                 65                N/A     7/ 6   2/11
MAYPORT                    65 64   50/ 23/ 29   N/A
31.4N   80.9W              61 64   50/ 21/ 27 1027.2F   7/ 6   2/10
ST AUGUSTINE               65      30/ 17/ 19 1025.4F

$$
FLZ040-043>046-052-053-057-058-063-144-172000-
INTERIOR CENTRAL FLORIDA

CITY           SKY/WX    TMP DP  RH WIND       PRES   REMARKS
OCALA          PTSUNNY   75  59  57 E13G23    30.21F
THE VILLAGES     N/A     73  61  64 E15G23    30.20F
LEESBURG       CLOUDY    77  62  59 E15G24    30.21F
SANFORD        CLOUDY    74  63  68 E14       30.22F
ORLANDO EXEC   CLOUDY    74  62  66 E22G29    30.20F
ORLANDO INTL   LGT RAIN  73  63  70 NE21      30.21F
KISSIMMEE      CLOUDY    73  66  78 NE15G26   30.20F
WINTER HAVEN   CLOUDY    74  65  73 E15G25    30.19F
LAKELAND       CLOUDY    73  64  73 E18G25    30.18S
BARTOW         CLOUDY    72  66  83 E15G21    30.18F
OKEECHOBEE     HVY RAIN  73  70  88 NE10G17   30.15F

$$
FLZ041-047-054-059-064-141-147-172000-
EAST CENTRAL FLORIDA

CITY           SKY/WX    TMP DP  RH WIND       PRES   REMARKS
ORMOND BEACH   MOSUNNY   75  63  64 E15G22    30.25F
DAYTONA BEACH  PTSUNNY   76  62  62 E18G26    30.24F
NEW SMYRNA BEA PTSUNNY   77  64  65 NE14G24   30.24F
JFK SPACE CTR  PTSUNNY   76  65  67 E16G24    30.21F
TITUSVILLE     CLOUDY    73  64  73 E22G33    30.21F
CAPE CANAVERAL PTSUNNY   76  66  70 E16G23    30.19F
PATRICK AFB    PTSUNNY   76  69  77 NE17      30.19F
MELBOURNE      CLOUDY    75  67  76 NE16      30.19F
VERO BEACH     CLOUDY    76  70  82 NE14      30.17F
FT PIERCE      CLOUDY    76  68  76 E16G23    30.15F
STUART         PTSUNNY   81  72  74 NE17G23   30.16F

STATION/POSITION SKY/WX   TEMP    WIND        PRES    WAVE   SWELL
                          AIR SEA DIR/SP/G            HT/PER HT/PER
                          (F)     (DEG/KT/KT) (MB)    (FT/S) (FT/S)
28.5N   80.2W              73 75   60/ 19/ 23 1022.9F
28.9N   78.5W              72 76   50/ 19/ 25 1023.6S
TRIDENT PIER               76 74   50/ 15/ 19 1022.1F
28.4N   80.5W                 73                N/A     4/ 6   2/11
27.6N   80.2W                 73                N/A     6/12   3/12

$$
FLZ050-056-061-142-242-148-248-149-249-151-251-155-255-
160-260-172000-
WEST CENTRAL FLORIDA

CITY           SKY/WX    TMP DP  RH WIND       PRES   REMARKS
CRYSTAL RIVER  CLOUDY    77  61  57 E14G21    30.18F
INVERNESS      CLOUDY    73  61  64 E6        30.20F
BROOKSVILLE    CLOUDY    74  63  68 E14       30.18F
ZEPHYRHILLS    CLOUDY    73  64  73 E14       30.18F
CLEARWATER     PTSUNNY   79  68  69 E13G21    30.13F
TAMPA INTL     CLOUDY    78  65  63 NE14G22   30.15F
TAMPA EXEC     CLOUDY    79  66  65 E13       30.17S
PLANT CITY     CLOUDY    77  66  69 E16G25    30.18F
MACDILL AFB    PTSUNNY   80  70  71 E23       30.13F
PETER O KNIGHT CLOUDY    79  68  69 NE22G28   30.15F
ST PETERSBURG  PTSUNNY   78  69  73 E20       30.12F
SARASOTA       PTSUNNY   85  67  54 E12G21    30.08F
VENICE         FAIR      84  70  61 E15       30.09F

STATION/POSITION SKY/WX   TEMP    WIND        PRES    WAVE   SWELL
                          AIR SEA DIR/SP/G            HT/PER HT/PER
                          (F)     (DEG/KT/KT) (MB)    (FT/S) (FT/S)
CEDAR KEY                  72      80/ 15/ 17 1022.0F
28.5N   84.5W              68 69   70/ 17/ 21 1020.3F   6/ 7
27.3N   84.3W                 72                N/A     5/ 6
CLEARWATER BEACH           79 72   90/ 13/ 16 1020.0F
MIDDLE TAMPA BAY           77      70/ 17/ 20 1020.2F
VENICE                     83 74   60/  8/ 11 1017.9F

$$
FLZ066-069-070-075>078-162-262-165-265-172000-
SOUTHWEST FLORIDA AND KEYS

CITY           SKY/WX    TMP DP  RH WIND       PRES   REMARKS
PUNTA GORDA    CLOUDY    83  70  64 E14       30.10F
FT MYERS       MOSUNNY   87  68  52 E16       30.06F
SOUTHWEST INTL PTSUNNY   86  68  54 NE15      30.07F
NAPLES         PTSUNNY   84  74  71 W10       30.05F
MARATHON       MOSUNNY   86  74  67 E10G17    30.06F
KEY WEST NAS   PTSUNNY   85  74  69 E13       30.05F
KEY WEST INTL  SUNNY     85  75  72 E15       30.06F

STATION/POSITION SKY/WX   TEMP    WIND        PRES    WAVE   SWELL
                          AIR SEA DIR/SP/G            HT/PER HT/PER
                          (F)     (DEG/KT/KT) (MB)    (FT/S) (FT/S)
VENICE                     83 74   60/  8/ 11 1017.9F
NAPLES                     80 76  280/  6/  9 1018.3F
26.0N   85.6W              76 80  100/ 12/ 14 1017.9F   5/ 7   5/ 7
DRY TORTUGAS     NOT AVBL
NW FL BAY                  81     120/ 11/ 14 1019.2F
SOMBRERO KEY               80      90/ 13/ 14 1018.4F
LONG KEY                   80 82  100/ 13/ 15 1018.9F
MOLASSES REEF              79 79   90/ 13/ 14 1018.2F

$$
FLZ067-068-071>074-168-172>174-172000-
SOUTHEAST FLORIDA

CITY           SKY/WX    TMP DP  RH WIND       PRES   REMARKS
W PALM BEACH   PTSUNNY   81  70  69 NE18      30.11F
FT LAUDER-EXEC LGT RAIN  76  72  87 NE9       30.10F
FT LAUDERDALE  CLOUDY    78  74  87 E10       30.10F
POMPANO BEACH  CLOUDY    78  72  81 E14       30.10F
PEMBROKE PINES LGT RAIN  76  73  91 NE8       30.12F
OPA LOCKA      CLOUDY    77  71  82 NE9       30.11F
MIAMI          CLOUDY    78  72  81 E8        30.10F
WEST KENDALL   CLOUDY    78  72  81 E16       30.10F
HOMESTEAD      CLOUDY    78  71  77 E10       30.09F

STATION/POSITION SKY/WX   TEMP    WIND        PRES    WAVE   SWELL
                          AIR SEA DIR/SP/G            HT/PER HT/PER
                          (F)     (DEG/KT/KT) (MB)    (FT/S) (FT/S)
PORT EVERGLADES            77      50/ 12/ 13 1019.6
VIRGINIA KEY               78 79   60/  9/ 13 1019.4S
LAKE WORTH                 77 77   50/ 16/ 19 1019.4F
FOWEY ROCKS                78 78   50/ 12/ 14 1019.0F
SETTLEMENT POINT           76      50/ 19/ 21 1020.6F

$$




USA.gov is the U.S. government's official web portal to all federal, state and local government web resources and services.